Recife, Brazil

3:43 PM -03 on June 25, 2018 (GMT -0300)
Guararapes International

Weather History for SBRF - September, 2017

Change the Weather History Date:

Thursday, September 14, 2017

  Actual Average Record
Temperature  
Mean Temperature 77 °F -  
Max Temperature 82 °F 83 °F 87 °F (1996)
Min Temperature 72 °F 70 °F 71 °F (2014)
Cooling Degree Days 12    
Growing Degree Days 27 (Base 50)    
Moisture  
Dew Point 68 °F    
Average Humidity 70    
Maximum Humidity 88    
Minimum Humidity 54    
Precipitation  
Precipitation 0.08 in 0.13 in - ()
Sea Level Pressure  
Sea Level Pressure 30.04 in    
Wind  
Wind Speed 13 mph ()    
Max Wind Speed 20 mph    
Max Gust Speed -    
Visibility 7.1 miles    
Events Rain    
Averages and records for this station are not official NWS values.
T = Trace of Precipitation, MM = Missing Value Source: Averaged Metar Reports

Daily Weather History Graph

Daily Weather History Graph

Search for Another Location

Airport or City:

Astronomy

Sep. 14, 2017 Rise Set
Actual Time 5:13 AM -03 5:16 PM -03
Civil Twilight 4:52 AM -03 5:37 PM -03
Nautical Twilight 4:28 AM -03 6:01 PM -03
Astronomical Twilight 4:04 AM -03 6:25 PM -03
Moon 12:10 AM -03 (9/14) 12:14 PM -03 (9/14)
Length of Visible Light 12h 44m
Length of Day
12h 02m
Waning Crescent, 35% of the Moon is Illuminated
Sep 14
Waning Crescent
Sep 20
New
Sep 27
First Quarter
Oct 5
Full
Oct 12
Last Quarter

Hourly Weather History & Observations

Time (-03) Temp. Heat Index Dew Point Humidity Pressure Visibility Wind Dir Wind Speed Gust Speed Precip Events Conditions
12:00 AM 73 °F - 69 °F 84% 30.08 in 4 mi South 17.3 mph - - Rain Light Rain
12:00 AM 73.4 °F - 69.8 °F 88% 30.06 in 3.7 mi South 17.3 mph - N/A Rain Light Rain
1:00 AM 77.0 °F - 68.0 °F 74% 30.04 in 6.2 mi SE 11.5 mph - N/A   Scattered Clouds
2:00 AM 77.0 °F - 68.0 °F 74% 30.04 in 6.2 mi SSE 15.0 mph - N/A   Scattered Clouds
3:00 AM 76 °F - 68 °F 69% 30.04 in 12 mi SSE 12.7 mph - -   Partly Cloudy
3:00 AM 75.2 °F - 68.0 °F 78% 30.04 in 6.2 mi SSE 12.7 mph - N/A   Scattered Clouds
4:00 AM 75.2 °F - 68.0 °F 78% 30.04 in 6.2 mi SSE 12.7 mph - N/A   Partly Cloudy
5:00 AM 71.6 °F - 68.0 °F 88% 30.04 in 3.7 mi SE 15.0 mph - N/A Rain Light Rain
6:00 AM 75.2 °F - 68.0 °F 78% 30.04 in 6.2 mi SE 13.8 mph - N/A   Scattered Clouds
7:00 AM 77.0 °F - 69.8 °F 78% 30.06 in 6.2 mi SE 12.7 mph - N/A   Scattered Clouds
8:00 AM 78.8 °F - 68.0 °F 69% 30.06 in 6.2 mi SSE 17.3 mph - N/A   Partly Cloudy
9:00 AM 80 °F - 68 °F 59% 30.09 in 12 mi SE 13.8 mph - -   Mostly Cloudy
9:00 AM 80.6 °F 83.2 °F 68.0 °F 65% 30.06 in 6.2 mi SE 13.8 mph - N/A   Mostly Cloudy
10:00 AM 78.8 °F - 69.8 °F 74% - 6.2 mi SE 18.4 mph - N/A   Scattered Clouds
11:00 AM 78.8 °F - 66.2 °F 65% 30.06 in 6.2 mi SE 15.0 mph - N/A   Mostly Cloudy
12:00 PM 81 °F - 69 °F 60% 30.05 in 12 mi SE 11.5 mph - -   Mostly Cloudy
12:00 PM 80.6 °F 83.9 °F 69.8 °F 70% 30.04 in 6.2 mi SE 11.5 mph - N/A   Scattered Clouds
1:00 PM 82.4 °F 85.4 °F 68.0 °F 62% 30.01 in 6.2 mi SE 17.3 mph - N/A   Scattered Clouds
2:00 PM 82.4 °F 83.9 °F 64.4 °F 54% 29.98 in 6.2 mi SE 17.3 mph - N/A   Scattered Clouds
3:00 PM 80 °F - 67 °F 57% 30.00 in 12 mi SSE 17.3 mph - -   Partly Cloudy
3:00 PM 80.6 °F 83.2 °F 68.0 °F 65% 29.98 in 6.2 mi SSE 17.3 mph - N/A   Scattered Clouds
4:00 PM 78.8 °F - 68.0 °F 69% 29.98 in 6.2 mi SSE 19.6 mph - N/A   Scattered Clouds
5:00 PM 77.0 °F - 68.0 °F 74% 30.01 in 6.2 mi SSE 16.1 mph - N/A   Scattered Clouds
6:00 PM 77 °F - 66 °F 60% 30.04 in 12 mi SSE 15.0 mph - -   Scattered Clouds
6:00 PM 77.0 °F - 66.2 °F 69% 30.04 in 6.2 mi SSE 15.0 mph - N/A   Partly Cloudy
7:00 PM 77.0 °F - 68.0 °F 74% 30.04 in 6.2 mi SSE 15.0 mph - N/A   Scattered Clouds
8:00 PM 77.0 °F - 68.0 °F 74% 30.06 in 6.2 mi SSE 15.0 mph - N/A   Scattered Clouds
9:00 PM 77 °F - 66 °F 61% 30.09 in 12 mi SE 13.8 mph - -   Scattered Clouds
9:00 PM 77.0 °F - 66.2 °F 69% 30.06 in 6.2 mi SE 13.8 mph - N/A   Mostly Cloudy
10:00 PM 77.0 °F - 66.2 °F 69% 30.09 in 6.2 mi SE 11.5 mph - N/A   Mostly Cloudy
11:00 PM 77.0 °F - 68.0 °F 74% 30.06 in 6.2 mi SE 11.5 mph - N/A   Mostly Cloudy